TimeCET,TemperatureF,Dew PointF,Humidity,Sea Level PressureIn,VisibilityMPH,Wind Direction,Wind SpeedMPH,Gust SpeedMPH,PrecipitationIn,Events,Conditions,WindDirDegrees,DateUTC
5:20 AM,35.6,30.2,81,30.27,-9999.0,Variable,2.3,-,N/A,,Clear,0,2012-11-15 04:20:00
5:50 AM,33.8,26.6,75,30.27,-9999.0,Variable,1.2,-,N/A,,Clear,0,2012-11-15 04:50:00
6:20 AM,33.8,26.6,75,30.24,-9999.0,Calm,Calm,-,N/A,,Clear,0,2012-11-15 05:20:00
6:50 AM,32.0,26.6,80,30.27,-9999.0,Calm,Calm,-,N/A,,Clear,0,2012-11-15 05:50:00
7:20 AM,32.0,24.8,75,30.24,-9999.0,Variable,2.3,-,N/A,,Clear,0,2012-11-15 06:20:00
7:50 AM,33.8,30.2,87,30.27,-9999.0,Variable,1.2,-,N/A,,Clear,0,2012-11-15 06:50:00
8:20 AM,35.6,32.0,87,30.27,-9999.0,Variable,1.2,-,N/A,,Clear,0,2012-11-15 07:20:00
8:50 AM,41.0,37.4,87,30.27,-9999.0,Variable,1.2,-,N/A,,Clear,0,2012-11-15 07:50:00
9:20 AM,44.6,35.6,71,30.24,-9999.0,Variable,2.3,-,N/A,,Clear,0,2012-11-15 08:20:00
9:50 AM,50.0,37.4,62,30.24,-9999.0,Variable,3.5,-,N/A,,Clear,0,2012-11-15 08:50:00
10:20 AM,51.8,37.4,58,30.24,-9999.0,North,4.6,-,N/A,,Clear,350,2012-11-15 09:20:00
10:50 AM,51.8,35.6,54,30.24,-9999.0,North,4.6,-,N/A,,Clear,350,2012-11-15 09:50:00
11:20 AM,53.6,32.0,44,30.24,-9999.0,North,4.6,-,N/A,,Clear,360,2012-11-15 10:20:00
11:50 AM,55.4,30.2,38,30.21,-9999.0,Variable,2.3,-,N/A,,Clear,0,2012-11-15 10:50:00
12:20 PM,57.2,35.6,44,30.21,-9999.0,Calm,Calm,-,N/A,,Clear,0,2012-11-15 11:20:00
12:50 PM,55.4,33.8,44,30.21,-9999.0,East,17.3,-,N/A,,Clear,100,2012-11-15 11:50:00
1:20 PM,55.4,33.8,44,30.18,-9999.0,East,16.1,-,N/A,,Clear,90,2012-11-15 12:20:00
1:50 PM,55.4,35.6,47,30.18,-9999.0,East,15.0,-,N/A,,Clear,100,2012-11-15 12:50:00
2:20 PM,55.4,35.6,47,30.18,-9999.0,East,16.1,-,N/A,,Clear,90,2012-11-15 13:20:00
2:50 PM,55.4,33.8,44,30.18,-9999.0,East,15.0,-,N/A,,Clear,90,2012-11-15 13:50:00
3:20 PM,53.6,33.8,47,30.18,-9999.0,East,15.0,-,N/A,,Clear,90,2012-11-15 14:20:00
3:50 PM,53.6,33.8,47,30.18,-9999.0,East,11.5,-,N/A,,Clear,90,2012-11-15 14:50:00
4:20 PM,51.8,33.8,50,30.18,-9999.0,East,11.5,-,N/A,,Clear,90,2012-11-15 15:20:00
4:50 PM,50.0,33.8,54,30.18,-9999.0,East,12.7,-,N/A,,Clear,90,2012-11-15 15:50:00
5:20 PM,50.0,33.8,54,30.18,-9999.0,East,11.5,-,N/A,,Clear,80,2012-11-15 16:20:00
5:50 PM,50.0,33.8,54,30.18,-9999.0,ENE,5.8,-,N/A,,Clear,60,2012-11-15 16:50:00
6:20 PM,48.2,32.0,54,30.18,-9999.0,Variable,3.5,-,N/A,,Clear,0,2012-11-15 17:20:00
6:50 PM,48.2,33.8,58,30.18,-9999.0,ENE,5.8,-,N/A,,Clear,70,2012-11-15 17:50:00
7:20 PM,46.4,32.0,57,30.18,-9999.0,Variable,2.3,-,N/A,,Clear,0,2012-11-15 18:20:00
7:50 PM,46.4,32.0,57,30.18,-9999.0,Calm,Calm,-,N/A,,Clear,0,2012-11-15 18:50:00
8:20 PM,44.6,33.8,66,30.18,-9999.0,Variable,2.3,-,N/A,,Clear,0,2012-11-15 19:20:00
8:50 PM,44.6,33.8,66,30.18,-9999.0,Variable,1.2,-,N/A,,Clear,0,2012-11-15 19:50:00
9:20 PM,41.0,30.2,65,30.18,-9999.0,Calm,Calm,-,N/A,,Clear,0,2012-11-15 20:20:00
9:50 PM,39.2,30.2,70,30.18,-9999.0,Calm,Calm,-,N/A,,Clear,0,2012-11-15 20:50:00
10:20 PM,37.4,28.4,70,30.18,-9999.0,Variable,1.2,-,N/A,,Clear,0,2012-11-15 21:20:00
10:50 PM,39.2,32.0,75,30.18,-9999.0,Variable,2.3,-,N/A,,Clear,0,2012-11-15 21:50:00
11:20 PM,37.4,28.4,70,30.18,-9999.0,Variable,1.2,-,N/A,,Clear,0,2012-11-15 22:20:00
11:50 PM,39.2,33.8,81,30.18,-9999.0,Variable,2.3,-,N/A,,Clear,0,2012-11-15 22:50:00